{"data":{"norad_id":57879,"epoch":"2026-05-25T05:01:36.143040Z","epoch_age_seconds":56799,"freshness":"FRESH","line1":"1 57879U 23144R   26145.20944610 -.00001929  00000+0 -60597-4 0  9997","line2":"2 57879  43.0015 212.7566 0001859 270.6223  89.4415 15.27565399149349","mean_motion":15.27565399,"eccentricity":0.0001859,"inclination_deg":43.0015,"raan_deg":212.7566,"arg_perigee_deg":270.6223,"mean_anomaly_deg":89.4415,"bstar":-6.0597e-5,"rev_number":14934,"period_min":94.267649747937,"perigee_km":481.8173144116,"apogee_km":484.36831965757,"semimajor_km":6861.2298170346,"source":"CELESTRAK","updated_at":"2026-05-25T13:38:18.449779Z"}}